![]() |
EMODnet Physics ERDDAP
Easier access to scientific data |
log in|
Brought to you by EMODnet Physics |
| Dataset Title: | NDBC - Collection of dew point temperature (DEWT) TimeSeries - IN SITU MultiPointTimeSeriesObservation
|
| Institution: | NDBC (Dataset ID: TS_DEWT_NDBC) |
| Information: | Summary
| License
| FGDC
| ISO 19115
| Metadata
| Background
| Subset
| Data Access Form
| Make a graph
|
| Name | Last modified | Size | Description | |
|---|---|---|---|---|
| Parent Directory | - | - | ||
| 46088_TS_DEWT_012005.nc | 13-Nov-2024 16:51 | 429598 | ||
| 46088_TS_DEWT_012006.nc | 13-Nov-2024 17:24 | 429899 | ||
| 46088_TS_DEWT_012007.nc | 13-Nov-2024 18:09 | 429904 | ||
| 46088_TS_DEWT_012008.nc | 13-Nov-2024 18:38 | 429859 | ||
| 46088_TS_DEWT_012009.nc | 13-Nov-2024 19:03 | 429900 | ||
| 46088_TS_DEWT_012010.nc | 13-Nov-2024 19:34 | 429884 | ||
| 46088_TS_DEWT_012011.nc | 13-Nov-2024 20:17 | 429904 | ||
| 46088_TS_DEWT_012012.nc | 13-Nov-2024 20:50 | 429898 | ||
| 46088_TS_DEWT_012013.nc | 13-Nov-2024 21:27 | 429905 | ||
| 46088_TS_DEWT_012014.nc | 13-Nov-2024 22:16 | 429879 | ||
| 46088_TS_DEWT_012015.nc | 13-Nov-2024 22:59 | 429901 | ||
| 46088_TS_DEWT_012016.nc | 13-Nov-2024 23:35 | 429908 | ||
| 46088_TS_DEWT_012017.nc | 14-Nov-2024 00:14 | 429900 | ||
| 46088_TS_DEWT_012018.nc | 14-Nov-2024 00:57 | 429883 | ||
| 46088_TS_DEWT_012019.nc | 14-Nov-2024 01:51 | 429902 | ||
| 46088_TS_DEWT_012020.nc | 14-Nov-2024 02:46 | 429883 | ||
| 46088_TS_DEWT_012021.nc | 14-Nov-2024 03:10 | 429906 | ||
| 46088_TS_DEWT_012023.nc | 14-Nov-2024 03:31 | 429903 | ||
| 46088_TS_DEWT_012025.nc | 07-Feb-2025 11:14 | 428959 | ||
| 46088_TS_DEWT_012026.nc | 15-Jan-2026 06:25 | 429262 | ||
| 46088_TS_DEWT_022005.nc | 13-Nov-2024 16:55 | 428955 | ||
| 46088_TS_DEWT_022006.nc | 13-Nov-2024 17:27 | 429284 | ||
| 46088_TS_DEWT_022007.nc | 13-Nov-2024 18:12 | 429278 | ||
| 46088_TS_DEWT_022008.nc | 13-Nov-2024 18:41 | 429278 | ||
| 46088_TS_DEWT_022009.nc | 13-Nov-2024 19:04 | 429285 | ||
| 46088_TS_DEWT_022010.nc | 13-Nov-2024 19:37 | 429283 | ||
| 46088_TS_DEWT_022011.nc | 13-Nov-2024 20:20 | 429356 | ||
| 46088_TS_DEWT_022012.nc | 13-Nov-2024 20:52 | 429345 | ||
| 46088_TS_DEWT_022013.nc | 13-Nov-2024 21:32 | 429356 | ||
| 46088_TS_DEWT_022014.nc | 13-Nov-2024 22:20 | 429332 | ||
| 46088_TS_DEWT_022015.nc | 13-Nov-2024 23:02 | 429362 | ||
| 46088_TS_DEWT_022016.nc | 13-Nov-2024 23:38 | 429355 | ||
| 46088_TS_DEWT_022017.nc | 14-Nov-2024 00:18 | 429350 | ||
| 46088_TS_DEWT_022018.nc | 14-Nov-2024 01:01 | 429355 | ||
| 46088_TS_DEWT_022019.nc | 14-Nov-2024 01:56 | 429359 | ||
| 46088_TS_DEWT_022020.nc | 14-Nov-2024 02:49 | 429356 | ||
| 46088_TS_DEWT_022021.nc | 14-Nov-2024 03:13 | 429357 | ||
| 46088_TS_DEWT_022023.nc | 14-Nov-2024 03:33 | 429362 | ||
| 46088_TS_DEWT_022025.nc | 01-Mar-2025 07:53 | 429547 | ||
| 46088_TS_DEWT_032005.nc | 13-Nov-2024 16:57 | 429561 | ||
| 46088_TS_DEWT_032006.nc | 13-Nov-2024 17:31 | 429558 | ||
| 46088_TS_DEWT_032007.nc | 13-Nov-2024 18:15 | 429562 | ||
| 46088_TS_DEWT_032008.nc | 13-Nov-2024 18:44 | 429559 | ||
| 46088_TS_DEWT_032009.nc | 13-Nov-2024 19:07 | 429563 | ||
| 46088_TS_DEWT_032010.nc | 13-Nov-2024 19:41 | 429008 | ||
| 46088_TS_DEWT_032011.nc | 13-Nov-2024 20:22 | 429563 | ||
| 46088_TS_DEWT_032012.nc | 13-Nov-2024 20:54 | 429562 | ||
| 46088_TS_DEWT_032013.nc | 13-Nov-2024 21:35 | 429560 | ||
| 46088_TS_DEWT_032014.nc | 13-Nov-2024 22:25 | 429559 | ||
| 46088_TS_DEWT_032015.nc | 13-Nov-2024 23:06 | 429562 | ||
| 46088_TS_DEWT_032016.nc | 13-Nov-2024 23:41 | 429558 | ||
| 46088_TS_DEWT_032017.nc | 14-Nov-2024 00:22 | 429562 | ||
| 46088_TS_DEWT_032018.nc | 14-Nov-2024 01:05 | 429562 | ||
| 46088_TS_DEWT_032019.nc | 14-Nov-2024 02:01 | 424546 | ||
| 46088_TS_DEWT_032020.nc | 14-Nov-2024 02:51 | 429418 | ||
| 46088_TS_DEWT_032023.nc | 14-Nov-2024 03:37 | 429560 | ||
| 46088_TS_DEWT_032025.nc | 02-Apr-2025 06:15 | 429562 | ||
| 46088_TS_DEWT_032026.nc | 24-Mar-2026 09:03 | 429558 | ||
| 46088_TS_DEWT_042005.nc | 13-Nov-2024 16:59 | 429595 | ||
| 46088_TS_DEWT_042006.nc | 13-Nov-2024 17:34 | 429414 | ||
| 46088_TS_DEWT_042007.nc | 13-Nov-2024 18:18 | 429599 | ||
| 46088_TS_DEWT_042008.nc | 13-Nov-2024 18:48 | 429604 | ||
| 46088_TS_DEWT_042009.nc | 13-Nov-2024 19:08 | 429613 | ||
| 46088_TS_DEWT_042010.nc | 13-Nov-2024 19:44 | 429586 | ||
| 46088_TS_DEWT_042011.nc | 13-Nov-2024 20:25 | 429603 | ||
| 46088_TS_DEWT_042012.nc | 13-Nov-2024 20:58 | 429609 | ||
| 46088_TS_DEWT_042013.nc | 13-Nov-2024 21:40 | 429681 | ||
| 46088_TS_DEWT_042014.nc | 13-Nov-2024 22:29 | 429680 | ||
| 46088_TS_DEWT_042015.nc | 13-Nov-2024 23:08 | 429685 | ||
| 46088_TS_DEWT_042016.nc | 13-Nov-2024 23:45 | 429685 | ||
| 46088_TS_DEWT_042017.nc | 14-Nov-2024 00:27 | 429677 | ||
| 46088_TS_DEWT_042018.nc | 14-Nov-2024 01:10 | 429686 | ||
| 46088_TS_DEWT_042019.nc | 14-Nov-2024 02:07 | 429689 | ||
| 46088_TS_DEWT_042020.nc | 14-Nov-2024 02:53 | 429678 | ||
| 46088_TS_DEWT_042023.nc | 14-Nov-2024 03:42 | 429684 | ||
| 46088_TS_DEWT_042025.nc | 01-May-2025 04:17 | 429685 | ||
| 46088_TS_DEWT_052005.nc | 13-Nov-2024 17:01 | 429685 | ||
| 46088_TS_DEWT_052006.nc | 13-Nov-2024 17:37 | 429679 | ||
| 46088_TS_DEWT_052007.nc | 13-Nov-2024 18:20 | 429903 | ||
| 46088_TS_DEWT_052008.nc | 13-Nov-2024 18:51 | 429901 | ||
| 46088_TS_DEWT_052009.nc | 13-Nov-2024 19:10 | 429889 | ||
| 46088_TS_DEWT_052010.nc | 13-Nov-2024 19:46 | 429902 | ||
| 46088_TS_DEWT_052011.nc | 13-Nov-2024 20:28 | 429852 | ||
| 46088_TS_DEWT_052012.nc | 13-Nov-2024 21:01 | 429884 | ||
| 46088_TS_DEWT_052013.nc | 13-Nov-2024 21:45 | 419142 | ||
| 46088_TS_DEWT_052014.nc | 13-Nov-2024 22:32 | 429905 | ||
| 46088_TS_DEWT_052015.nc | 13-Nov-2024 23:11 | 429904 | ||
| 46088_TS_DEWT_052016.nc | 13-Nov-2024 23:49 | 429904 | ||
| 46088_TS_DEWT_052017.nc | 14-Nov-2024 00:31 | 429904 | ||
| 46088_TS_DEWT_052018.nc | 14-Nov-2024 01:14 | 429901 | ||
| 46088_TS_DEWT_052019.nc | 14-Nov-2024 02:12 | 429904 | ||
| 46088_TS_DEWT_052020.nc | 14-Nov-2024 02:55 | 429902 | ||
| 46088_TS_DEWT_052023.nc | 14-Nov-2024 03:46 | 429648 | ||
| 46088_TS_DEWT_052025.nc | 01-Jun-2025 04:05 | 429905 | ||
| 46088_TS_DEWT_062005.nc | 13-Nov-2024 17:04 | 429903 | ||
| 46088_TS_DEWT_062006.nc | 13-Nov-2024 17:40 | 429901 | ||
| 46088_TS_DEWT_062007.nc | 13-Nov-2024 18:22 | 429905 | ||
| 46088_TS_DEWT_062008.nc | 13-Nov-2024 18:54 | 429901 | ||
| 46088_TS_DEWT_062009.nc | 13-Nov-2024 19:13 | 2349579 | ||
| 46088_TS_DEWT_062010.nc | 13-Nov-2024 19:49 | 4766446 | ||
| 46088_TS_DEWT_062011.nc | 13-Nov-2024 20:30 | 3820155 | ||
| 46088_TS_DEWT_062012.nc | 13-Nov-2024 21:03 | 1263283 | ||
| 46088_TS_DEWT_062013.nc | 13-Nov-2024 21:49 | 3411667 | ||
| 46088_TS_DEWT_062014.nc | 13-Nov-2024 22:35 | 1020261 | ||
| 46088_TS_DEWT_062015.nc | 13-Nov-2024 23:14 | 4833666 | ||
| 46088_TS_DEWT_062016.nc | 13-Nov-2024 23:52 | 1257124 | ||
| 46088_TS_DEWT_062017.nc | 14-Nov-2024 00:35 | 5482919 | ||
| 46088_TS_DEWT_062018.nc | 14-Nov-2024 01:19 | 5182484 | ||
| 46088_TS_DEWT_062019.nc | 14-Nov-2024 02:17 | 5603725 | ||
| 46088_TS_DEWT_062020.nc | 14-Nov-2024 02:57 | 429602 | ||
| 46088_TS_DEWT_062023.nc | 14-Nov-2024 03:49 | 429605 | ||
| 46088_TS_DEWT_062025.nc | 30-Jun-2025 03:32 | 429607 | ||
| 46088_TS_DEWT_072004.nc | 13-Nov-2024 16:36 | 429692 | ||
| 46088_TS_DEWT_072005.nc | 13-Nov-2024 17:06 | 428619 | ||
| 46088_TS_DEWT_072006.nc | 13-Nov-2024 17:45 | 429551 | ||
| 46088_TS_DEWT_072007.nc | 13-Nov-2024 18:25 | 429624 | ||
| 46088_TS_DEWT_072008.nc | 13-Nov-2024 18:57 | 429619 | ||
| 46088_TS_DEWT_072009.nc | 13-Nov-2024 19:16 | 429590 | ||
| 46088_TS_DEWT_072010.nc | 13-Nov-2024 19:54 | 429551 | ||
| 46088_TS_DEWT_072011.nc | 13-Nov-2024 20:33 | 429616 | ||
| 46088_TS_DEWT_072012.nc | 13-Nov-2024 21:05 | 429614 | ||
| 46088_TS_DEWT_072013.nc | 13-Nov-2024 21:53 | 450866 | ||
| 46088_TS_DEWT_072014.nc | 13-Nov-2024 22:39 | 435587 | ||
| 46088_TS_DEWT_072015.nc | 13-Nov-2024 23:17 | 450222 | ||
| 46088_TS_DEWT_072016.nc | 13-Nov-2024 23:54 | 451282 | ||
| 46088_TS_DEWT_072017.nc | 14-Nov-2024 00:39 | 450689 | ||
| 46088_TS_DEWT_072018.nc | 14-Nov-2024 01:24 | 429614 | ||
| 46088_TS_DEWT_072019.nc | 14-Nov-2024 02:22 | 451410 | ||
| 46088_TS_DEWT_072020.nc | 14-Nov-2024 02:59 | 450664 | ||
| 46088_TS_DEWT_072023.nc | 14-Nov-2024 03:54 | 450228 | ||
| 46088_TS_DEWT_072025.nc | 01-Aug-2025 03:32 | 429837 | ||
| 46088_TS_DEWT_082004.nc | 13-Nov-2024 16:41 | 451327 | ||
| 46088_TS_DEWT_082005.nc | 13-Nov-2024 17:08 | 451281 | ||
| 46088_TS_DEWT_082006.nc | 13-Nov-2024 17:48 | 424957 | ||
| 46088_TS_DEWT_082007.nc | 13-Nov-2024 18:27 | 419408 | ||
| 46088_TS_DEWT_082008.nc | 13-Nov-2024 18:59 | 451605 | ||
| 46088_TS_DEWT_082009.nc | 13-Nov-2024 19:19 | 452014 | ||
| 46088_TS_DEWT_082010.nc | 13-Nov-2024 19:58 | 450899 | ||
| 46088_TS_DEWT_082011.nc | 13-Nov-2024 20:36 | 449359 | ||
| 46088_TS_DEWT_082012.nc | 13-Nov-2024 21:08 | 450632 | ||
| 46088_TS_DEWT_082013.nc | 13-Nov-2024 21:56 | 450901 | ||
| 46088_TS_DEWT_082014.nc | 13-Nov-2024 22:43 | 449895 | ||
| 46088_TS_DEWT_082015.nc | 13-Nov-2024 23:20 | 450694 | ||
| 46088_TS_DEWT_082016.nc | 13-Nov-2024 23:58 | 451386 | ||
| 46088_TS_DEWT_082017.nc | 14-Nov-2024 00:43 | 451080 | ||
| 46088_TS_DEWT_082018.nc | 14-Nov-2024 01:28 | 450837 | ||
| 46088_TS_DEWT_082019.nc | 14-Nov-2024 02:27 | 450994 | ||
| 46088_TS_DEWT_082020.nc | 14-Nov-2024 03:01 | 451445 | ||
| 46088_TS_DEWT_082023.nc | 14-Nov-2024 03:58 | 450895 | ||
| 46088_TS_DEWT_082025.nc | 01-Sep-2025 03:39 | 450620 | ||
| 46088_TS_DEWT_092004.nc | 13-Nov-2024 16:43 | 3922514 | ||
| 46088_TS_DEWT_092005.nc | 13-Nov-2024 17:11 | 428944 | ||
| 46088_TS_DEWT_092006.nc | 13-Nov-2024 17:52 | 428603 | ||
| 46088_TS_DEWT_092007.nc | 13-Nov-2024 18:29 | 428604 | ||
| 46088_TS_DEWT_092008.nc | 13-Nov-2024 19:00 | 428614 | ||
| 46088_TS_DEWT_092009.nc | 13-Nov-2024 19:20 | 428484 | ||
| 46088_TS_DEWT_092010.nc | 13-Nov-2024 20:01 | 428619 | ||
| 46088_TS_DEWT_092011.nc | 13-Nov-2024 20:38 | 428619 | ||
| 46088_TS_DEWT_092012.nc | 13-Nov-2024 21:11 | 428950 | ||
| 46088_TS_DEWT_092013.nc | 13-Nov-2024 22:00 | 428618 | ||
| 46088_TS_DEWT_092014.nc | 13-Nov-2024 22:46 | 428456 | ||
| 46088_TS_DEWT_092015.nc | 13-Nov-2024 23:23 | 428619 | ||
| 46088_TS_DEWT_092016.nc | 14-Nov-2024 00:02 | 448418 | ||
| 46088_TS_DEWT_092017.nc | 14-Nov-2024 00:48 | 447867 | ||
| 46088_TS_DEWT_092018.nc | 14-Nov-2024 01:33 | 447661 | ||
| 46088_TS_DEWT_092019.nc | 14-Nov-2024 02:31 | 449093 | ||
| 46088_TS_DEWT_092020.nc | 14-Nov-2024 03:03 | 428619 | ||
| 46088_TS_DEWT_092021.nc | 14-Nov-2024 03:14 | 443430 | ||
| 46088_TS_DEWT_092022.nc | 14-Nov-2024 03:20 | 447040 | ||
| 46088_TS_DEWT_092023.nc | 14-Nov-2024 04:02 | 447870 | ||
| 46088_TS_DEWT_092025.nc | 01-Oct-2025 03:06 | 428811 | ||
| 46088_TS_DEWT_102004.nc | 13-Nov-2024 16:46 | 448622 | ||
| 46088_TS_DEWT_102005.nc | 13-Nov-2024 17:15 | 446965 | ||
| 46088_TS_DEWT_102006.nc | 13-Nov-2024 17:57 | 423993 | ||
| 46088_TS_DEWT_102007.nc | 13-Nov-2024 18:31 | 446895 | ||
| 46088_TS_DEWT_102008.nc | 13-Nov-2024 19:01 | 447507 | ||
| 46088_TS_DEWT_102009.nc | 13-Nov-2024 19:25 | 447952 | ||
| 46088_TS_DEWT_102010.nc | 13-Nov-2024 20:05 | 448244 | ||
| 46088_TS_DEWT_102011.nc | 13-Nov-2024 20:39 | 447452 | ||
| 46088_TS_DEWT_102012.nc | 13-Nov-2024 21:15 | 446615 | ||
| 46088_TS_DEWT_102013.nc | 13-Nov-2024 22:04 | 448663 | ||
| 46088_TS_DEWT_102014.nc | 13-Nov-2024 22:49 | 447579 | ||
| 46088_TS_DEWT_102015.nc | 13-Nov-2024 23:27 | 447579 | ||
| 46088_TS_DEWT_102016.nc | 14-Nov-2024 00:05 | 447103 | ||
| 46088_TS_DEWT_102018.nc | 14-Nov-2024 01:37 | 449006 | ||
| 46088_TS_DEWT_102019.nc | 14-Nov-2024 02:35 | 447683 | ||
| 46088_TS_DEWT_102020.nc | 14-Nov-2024 03:05 | 447171 | ||
| 46088_TS_DEWT_102021.nc | 14-Nov-2024 03:17 | 447818 | ||
| 46088_TS_DEWT_102022.nc | 14-Nov-2024 03:21 | 420068 | ||
| 46088_TS_DEWT_102023.nc | 14-Nov-2024 04:06 | 2949818 | ||
| 46088_TS_DEWT_102024.nc | 12-Jan-2025 20:07 | 429609 | ||
| 46088_TS_DEWT_102025.nc | 01-Nov-2025 04:08 | 429608 | ||
| 46088_TS_DEWT_112004.nc | 13-Nov-2024 16:48 | 429594 | ||
| 46088_TS_DEWT_112005.nc | 13-Nov-2024 17:17 | 429622 | ||
| 46088_TS_DEWT_112006.nc | 13-Nov-2024 18:02 | 429593 | ||
| 46088_TS_DEWT_112007.nc | 13-Nov-2024 18:33 | 429606 | ||
| 46088_TS_DEWT_112008.nc | 13-Nov-2024 19:01 | 429625 | ||
| 46088_TS_DEWT_112009.nc | 13-Nov-2024 19:28 | 429600 | ||
| 46088_TS_DEWT_112010.nc | 13-Nov-2024 20:09 | 429527 | ||
| 46088_TS_DEWT_112011.nc | 13-Nov-2024 20:43 | 429625 | ||
| 46088_TS_DEWT_112012.nc | 13-Nov-2024 21:19 | 429618 | ||
| 46088_TS_DEWT_112013.nc | 13-Nov-2024 22:08 | 450811 | ||
| 46088_TS_DEWT_112014.nc | 13-Nov-2024 22:52 | 451265 | ||
| 46088_TS_DEWT_112016.nc | 14-Nov-2024 00:07 | 449972 | ||
| 46088_TS_DEWT_112018.nc | 14-Nov-2024 01:41 | 451171 | ||
| 46088_TS_DEWT_112019.nc | 14-Nov-2024 02:39 | 429614 | ||
| 46088_TS_DEWT_112020.nc | 14-Nov-2024 03:06 | 450306 | ||
| 46088_TS_DEWT_112021.nc | 14-Nov-2024 03:19 | 451157 | ||
| 46088_TS_DEWT_112022.nc | 14-Nov-2024 03:24 | 451748 | ||
| 46088_TS_DEWT_112023.nc | 14-Nov-2024 04:09 | 429842 | ||
| 46088_TS_DEWT_112024.nc | 17-Jan-2025 13:29 | 451511 | ||
| 46088_TS_DEWT_112025.nc | 01-Dec-2025 04:48 | 434931 | ||
| 46088_TS_DEWT_122004.nc | 13-Nov-2024 16:49 | 435056 | ||
| 46088_TS_DEWT_122005.nc | 13-Nov-2024 17:20 | 450836 | ||
| 46088_TS_DEWT_122006.nc | 13-Nov-2024 18:06 | 450675 | ||
| 46088_TS_DEWT_122007.nc | 13-Nov-2024 18:35 | 450488 | ||
| 46088_TS_DEWT_122008.nc | 13-Nov-2024 19:02 | 449956 | ||
| 46088_TS_DEWT_122009.nc | 13-Nov-2024 19:31 | 451448 | ||
| 46088_TS_DEWT_122010.nc | 13-Nov-2024 20:13 | 451709 | ||
| 46088_TS_DEWT_122011.nc | 13-Nov-2024 20:46 | 450766 | ||
| 46088_TS_DEWT_122012.nc | 13-Nov-2024 21:23 | 451317 | ||
| 46088_TS_DEWT_122013.nc | 13-Nov-2024 22:13 | 450588 | ||
| 46088_TS_DEWT_122014.nc | 13-Nov-2024 22:56 | 451291 | ||
| 46088_TS_DEWT_122015.nc | 13-Nov-2024 23:31 | 451597 | ||
| 46088_TS_DEWT_122016.nc | 14-Nov-2024 00:10 | 443650 | ||
| 46088_TS_DEWT_122017.nc | 14-Nov-2024 00:52 | 450830 | ||
| 46088_TS_DEWT_122018.nc | 14-Nov-2024 01:45 | 450688 | ||
| 46088_TS_DEWT_122019.nc | 14-Nov-2024 02:43 | 3336557 | ||
| 46088_TS_DEWT_122020.nc | 14-Nov-2024 03:07 | 429281 | ||
| 46088_TS_DEWT_122022.nc | 14-Nov-2024 03:27 | 429276 | ||
| 46088_TS_DEWT_122023.nc | 14-Nov-2024 04:13 | 429276 | ||
| 46088_TS_DEWT_122024.nc | 22-Jan-2025 15:45 | 429288 | ||
| 46088_TS_DEWT_122025.nc | 08-Dec-2025 04:33 | 419592 | ||